Погода в Свеннборге

Дания     55°02′39″N   10°36′25″E
темп.,
°C
ветер,
м/с
пор.,
м/с
влажн.,
%
обл.,
%
осадки,
мм/ч
давл.,
гПа
погр.,
м
12 августа, пт
пт1223:00+19в22695 0.0 102313
02:00+18вюв33681 0.0 102344
05:00+18в33740 0.0 102371
08:00+20в34630 0.0 1023175
11:00+22вюв34510 0.0 1023405
14:00+24юв44485 0.0 1022580
17:00+24в55475 0.0 1021386
20:00+22в46612 0.0 1021118
13 августа, сб
сб1323:00+20в33660 0.0 102121
02:00+19в46725 0.0 102190
05:00+19юв45760 0.0 102065
08:00+21юв45675 0.0 1020144
11:00+23ююв345677 0.0 1020282
14:00+25ююв3450100 0.0 1020421
17:00+25вюв334733 0.0 1019380
20:00+23в34572 0.0 101851
14 августа, вс
вс1423:00+20юв33750 0.0 101829
02:00+20в33741 0.0 101739
05:00+19вюв338456 0.0 101738
08:00+21вюв45745 0.0 1016139
11:00+24вюв566011 0.0 1015408
14:00+24юв4559100 0.0 1015517
17:00+24в5655100 0.0 1013389
20:00+22в71171100 0.0 1012228
15 августа, пн
пн1523:00+20в61280100 0.0 1011266
02:00+19в5987100 0.0 1010209
05:00+19всв589293 0.2 1009217
08:00+20в568882 0.3 1008280
11:00+23в687460 0.0 1007360
14:00+24в676619 0.5 1006528
17:00+24в666745 0.0 1004332
20:00+21всв2385100 1.4 100499
16 августа, вт
вт1623:00+20вюв5109043 3.2 1004220
02:00+20юв499437 4.0 1004197
05:00+20вюв359298 0.0 1003101
08:00+21зюз1183100 0.0 1004107
11:00+22зюз56730 0.0 1005494
14:00+24юз56635 0.0 1006799
17:00+25зюз68493 0.0 1006959
20:00+23зюз596254 0.0 1007266